Northeast Philadelphia, PA

2:55 PM EST on November 12, 2019 (GMT -0500)
Northeast Philadelphia

Weather History for KPNE - September, 2019

Change the Weather History Date:

Friday, September 6, 2019

  Actual Average Record
Temperature  
Mean Temperature 65 °F -  
Max Temperature 70 °F 78 °F 97 °F (2018)
Min Temperature 61 °F 60 °F 50 °F (2000)
Growing Degree Days 15 (Base 50)    
Moisture  
Dew Point 58 °F    
Average Humidity 80    
Maximum Humidity 87    
Minimum Humidity 68    
Precipitation  
Precipitation 0.11 in - - ()
Sea Level Pressure  
Sea Level Pressure 29.85 in    
Wind  
Wind Speed 10 mph ()    
Max Wind Speed 18 mph    
Max Gust Speed 26 mph    
Visibility 7.2 miles    
Events Rain    
Averages and records for this station are not official NWS values.
T = Trace of Precipitation, MM = Missing Value Source: Averaged Metar Reports

Daily Weather History Graph

Daily Weather History Graph

Search for Another Location

Airport or City:

Astronomy

Sep. 06, 2019 Rise Set
Actual Time 6:32 AM EDT 7:23 PM EDT
Civil Twilight 6:04 AM EDT 7:51 PM EDT
Nautical Twilight 5:31 AM EDT 8:24 PM EDT
Astronomical Twilight 4:57 AM EDT 8:57 PM EDT
Moon 2:38 PM EDT (9/6) No Moon Set
Length of Visible Light 13h 46m
Length of Day
12h 51m
First Quarter, 55% of the Moon is Illuminated
Sep 6
First Quarter
Sep 14
Full
Sep 21
Last Quarter
Sep 28
New
Oct 5
First Quarter

Hourly Weather History & Observations

Time (EDT) Temp. Dew Point Humidity Pressure Visibility Wind Dir Wind Speed Gust Speed Precip Events Conditions
12:54 AM 66.9 °F 59.0 °F 76% 30.01 in 10.0 mi NE 6.9 mph - N/A   Overcast
1:54 AM 66.9 °F 57.9 °F 73% 30.00 in 10.0 mi NE 5.8 mph - N/A   Mostly Cloudy
2:54 AM 66.9 °F 59.0 °F 76% 29.98 in 10.0 mi NNE 6.9 mph - N/A   Mostly Cloudy
3:54 AM 64.9 °F 59.0 °F 81% 29.97 in 10.0 mi NE 6.9 mph - N/A   Mostly Cloudy
4:54 AM 66.0 °F 57.9 °F 75% 29.95 in 10.0 mi NE 10.4 mph - N/A   Overcast
5:54 AM 66.9 °F 57.0 °F 70% 29.95 in 10.0 mi NE 12.7 mph - N/A   Overcast
6:54 AM 66.0 °F 55.9 °F 70% 29.94 in 10.0 mi NE 11.5 mph - N/A   Overcast
7:54 AM 66.9 °F 55.9 °F 68% 29.93 in 10.0 mi ENE 11.5 mph - N/A   Overcast
8:12 AM 66.9 °F 55.9 °F 68% 29.93 in 10.0 mi NE 11.5 mph - N/A   Overcast
8:54 AM 68.0 °F 57.0 °F 68% 29.91 in 10.0 mi NE 13.8 mph - N/A   Overcast
9:47 AM 69.1 °F 59.0 °F 70% 29.91 in 10.0 mi NE 15.0 mph - N/A   Mostly Cloudy
9:54 AM 69.1 °F 59.0 °F 70% 29.91 in 10.0 mi NE 13.8 mph - N/A   Overcast
10:54 AM 69.1 °F 60.1 °F 73% 29.88 in 10.0 mi NE 10.4 mph - N/A   Overcast
11:54 AM 69.1 °F 59.0 °F 70% 29.88 in 10.0 mi East 16.1 mph 24.2 mph 0.01 in   Overcast
12:54 PM 64.9 °F 60.1 °F 84% 29.87 in 3.0 mi ENE 17.3 mph 25.3 mph 0.00 in Rain Light Rain
1:11 PM 64.9 °F 60.1 °F 84% 29.87 in 3.0 mi ENE 17.3 mph - 0.00 in Rain Light Rain
1:44 PM 64.9 °F 60.1 °F 84% 29.84 in 10.0 mi NE 16.1 mph - 0.01 in   Overcast
1:54 PM 64.9 °F 59.0 °F 81% 29.84 in 10.0 mi NE 12.7 mph - 0.01 in   Overcast
2:54 PM 64.0 °F 59.0 °F 84% 29.81 in 6.0 mi NE 15.0 mph 24.2 mph N/A   Haze
3:27 PM 64.0 °F 59.0 °F 84% 29.80 in 10.0 mi NE 12.7 mph - N/A   Overcast
3:51 PM 64.4 °F 59.0 °F 83% 29.79 in 8.0 mi NE 13.8 mph - N/A   Overcast
3:54 PM 64.0 °F 60.1 °F 87% 29.79 in 9.0 mi NE 12.7 mph - N/A   Overcast
4:02 PM 64.0 °F 59.0 °F 84% 29.79 in 4.0 mi NE 13.8 mph - 0.00 in Rain Light Rain
4:20 PM 64.0 °F 60.1 °F 87% 29.80 in 1.8 mi NE 11.5 mph - 0.01 in Rain Light Rain
4:29 PM 64.0 °F 60.1 °F 87% 29.80 in 2.0 mi NE 15.0 mph - 0.02 in Rain Light Rain
4:41 PM 64.0 °F 60.1 °F 87% 29.80 in 2.0 mi NE 11.5 mph - 0.04 in Rain Light Rain
4:47 PM 64.0 °F 60.1 °F 87% 29.80 in 1.8 mi NE 10.4 mph - 0.04 in Rain Light Rain
4:54 PM 64.0 °F 60.1 °F 87% 29.80 in 1.5 mi NE 9.2 mph - 0.04 in Rain Light Rain
5:06 PM 64.0 °F 60.1 °F 87% 29.80 in 2.0 mi NE 13.8 mph - 0.01 in Rain Light Rain
5:23 PM 64.0 °F 60.1 °F 87% 29.80 in 1.8 mi NNE 11.5 mph - 0.01 in Rain Light Rain
5:41 PM 63.0 °F 59.0 °F 87% 29.80 in 2.0 mi NNE 13.8 mph 20.7 mph 0.02 in Rain Light Rain
5:54 PM 63.0 °F 59.0 °F 87% 29.80 in 2.0 mi NNE 18.4 mph 26.5 mph 0.03 in Rain Light Rain
6:08 PM 63.0 °F 59.0 °F 87% 29.80 in 2.0 mi North 11.5 mph - 0.00 in   Overcast
6:31 PM 63.0 °F 59.0 °F 87% 29.80 in 5.0 mi North 15.0 mph - 0.00 in   Overcast
6:54 PM 63.0 °F 57.9 °F 84% 29.80 in 5.0 mi North 13.8 mph - 0.00 in   Haze
7:54 PM 62.1 °F 55.9 °F 80% 29.81 in 10.0 mi North 10.4 mph 19.6 mph N/A   Overcast
8:06 PM 62.1 °F 55.9 °F 80% 29.80 in 10.0 mi North 11.5 mph - N/A   Overcast
8:54 PM 62.1 °F 55.9 °F 80% 29.81 in 10.0 mi North 11.5 mph - N/A   Overcast
9:37 PM 61.0 °F 55.9 °F 83% 29.80 in 9.0 mi North 11.5 mph - 0.00 in Rain Light Rain
9:54 PM 61.0 °F 55.9 °F 83% 29.81 in 10.0 mi North 11.5 mph - 0.00 in   Overcast
10:54 PM 61.0 °F 55.9 °F 83% 29.81 in 10.0 mi NNW 11.5 mph - 0.02 in   Overcast
11:54 PM 61.0 °F 55.0 °F 81% 29.80 in 10.0 mi North 9.2 mph - N/A   Overcast